{"data":{"norad_id":56007,"epoch":"2026-09-19T17:13:35.871456Z","epoch_age_seconds":173684,"freshness":"STALE","line1":"1 56007U 23042X   26262.71777629 -.00000036  00000+0  82468-5 0  9995","line2":"2 56007  43.0060  43.8235 0002036 283.7189  76.3436 15.27576958192542","mean_motion":15.27576958,"eccentricity":0.0002036,"inclination_deg":43.006,"raan_deg":43.8235,"arg_perigee_deg":283.7189,"mean_anomaly_deg":76.3436,"bstar":8.2468e-6,"rev_number":19254,"period_min":94.266936435421,"perigee_km":481.66126555341,"apogee_km":484.45514424084,"semimajor_km":6861.1952048971,"source":"CELESTRAK","updated_at":"2026-09-21T09:00:33.353476Z"}}